Weather in Sedlistoye

Russia / Astrakhan Oblast     45°49′03″N   47°39′53″E
temp.,
°C
wind,
m/s
gust,
m/s
humid.,
%
clouds,
%
prec.,
mm/h
press.,
hPa
HPBL,
m
25 february, thu
thu2501:00−16wnw23750 0.0 104163
04:00−17nw22731 0.0 104026
07:00−17n017161 0.0 104020
10:00−13sse225053 0.0 1041277
13:00−9s335372 0.0 1040494
16:00−8s456468 0.0 1037534
19:00−8sse368299 0.0 1035395
22:00−6s4108399 0.0 1032424
26 february, fri
fri2601:00−5ssw51290100 0.0 1029426
04:00−4sw51088100 0.0 1026348
07:00−5wsw51181100 0.0 1024346
10:00−3w71290100 0.3 1023519
13:00+1w71391100 0.3 1022523
16:00+2w71594100 0.7 1021568
19:00+2w71495100 0.5 1020482
22:00+3w61395100 1.0 1020475
27 february, sat
sat2701:00+2w61395100 0.1 1019397
04:00+2w61295100 0.2 1018415
07:00+2w51194100 0.0 1018345
10:00+2wsw61193100 0.2 1017341
13:00+4wsw71289100 0.2 1016473
16:00+4wsw71287100 0.2 1015527
19:00+3sw61292100 0.3 1014409
22:00+3sw61392100 0.6 1013419
28 february, sun
sun2801:00+3wsw61291100 0.3 1012371
04:00+3wsw51094100 0.8 1011330
07:00+2w4897100 0.4 1011240
10:00+3w3798100 1.0 1012232
13:00+5wsw4791100 0.2 1013410
16:00+6w4780100 0.3 1013900
19:00+4wnw5981100 0.1 1014365
22:00+3w41085100 0.1 1016474
1 march, mon
mon101:00+1wnw5119234 0.0 1017431
04:00−1nw498758 0.0 1018400
07:00−2wnw498163 0.0 1020587
10:00−1nw677159 0.0 1022882
13:00−1wnw676899 0.0 1024946
16:000wnw6764100 0.1 10241061
19:00−2wnw476897 0.0 1025574
22:00−3nw367149 0.0 1027233